Regional Weather Roundup
Issued by NWS Jackson, KY

Home | Current Version | Previous Version | Text Only | Print | Product List | Glossary On
Versions: 1 2 3 4 5 6 7 8 9 10 11 12 13 14 15 16 17 18 19 20 21 22 23 24 25 26 27 28 29 30 31 32 33 34 35 36 37 38 39 40 41 42 43 44 45 46 47 48 49 50
000
ASUS43 KJKL 042110
RWRJKL

EAST KENTUCKY HOURLY WEATHER ROUNDUP
NATIONAL WEATHER SERVICE JACKSON KY
400 PM EST SUN DEC 04 2016

NOTE: "FAIR" INDICATES FEW OR NO CLOUDS BELOW 12,000 FEET WITH
NO SIGNIFICANT WEATHER AND/OR OBSTRUCTIONS TO VISIBILITY.

* THESE REPORTS ARE NOT UNDER NWS QUALITY CONTROL AND MAY NOT
  REPORT WEATHER SUCH AS PRECIPITATION AND FOG.

KYZ079-080-083-085-087-088-110-112-115-119-120-042200
...EASTERN KENTUCKY...

CITY           SKY/WX    TMP DP  RH WIND       PRES   REMARKS
JACKSON        LGT RAIN  41  39  93 CALM      29.94F
LONDON         LGT RAIN  45  42  89 S3        29.94S
SOMERSET*      DRIZZLE   43  43 100 SE5       29.95F
MONTICELLO*    LGT RAIN  47  44  90 E6        29.95S
WILLIAMSBURG*  CLOUDY    45  45 100 SE8       29.94S
MIDDLESBORO*   DRIZZLE   46  44  94 CALM      29.98S
HARLAN APT*    CLOUDY    45  41  87 CALM      29.97R
PIKE CO APT*   RAIN      45  44  99 SE6       29.95F
BIG SANDY APT* RAIN      46  43  90 SE3       29.96F
MOREHEAD APT*  CLOUDY    43  36  75 SE6       29.96F
ASHLAND*       CLOUDY    46  34  61 SE8       29.96F
$$

KYZ035-036-041-042-044-050-067-078-099-042200
...CENTRAL KENTUCKY...

CITY           SKY/WX    TMP DP  RH WIND       PRES   REMARKS
MT STERLING*   DRIZZLE   43  41  93 S6        29.95F
FLEMING/MASON* CLOUDY    45  35  66 S7        29.95F
DANVILLE*      DRIZZLE   43  43 100 S9        29.93F
LEXINGTON      CLOUDY    44  40  85 SE8       29.91F
FRANKFORT      CLOUDY    45  42  89 VRB3      29.91F FOG
LOUISVILLE     LGT RAIN  46  44  93 S9        29.91F FOG
LEBANON*       CLOUDY    45  45 100 SE7       29.91F FOG
GLASGOW*       CLOUDY   N/A N/A N/A S3        29.92F HAZE
BOWLING GREEN  CLOUDY    48  46  93 SW5       29.93S FOG
$$

KYZ091>093-OHZ055-061-077-WVZ005-015-034-035-042-042200
...SOUTHERN OHIO/WEST VIRGINIA...

CITY           SKY/WX    TMP DP  RH WIND       PRES   REMARKS
COVINGTON      LGT RAIN  42  35  76 SE10      29.91F
COLUMBUS       CLOUDY    41  29  62 E13       29.97F
DAYTON         LGT RAIN  39  31  72 E14       29.93F WCI  31
WILMINGTON     CLOUDY    40  31  70 E8        29.93F WCI  34
HUNTINGTON     LGT RAIN  47  33  58 E3        29.97F
CHARLESTON     CLOUDY    48  33  56 SE5       29.98F
PINEVILLE*     DRIZZLE   46  35  67 MISG      30.04F
BECKLEY        CLOUDY    38  32  79 SE10G23   30.00F WCI  31
BLUEFIELD      LGT RAIN  37  34  89 VRB3      30.01F
LOGAN CO APT*  CLOUDY    46  37  71 S8        29.97S
$$

VAZ002-007-008-TNZ017-027-036-066-071-042200
...SOUTHWEST VIRGINIA/EAST TENNESSEE...

CITY           SKY/WX    TMP DP  RH WIND       PRES   REMARKS
WISE*          LGT RAIN  43  43 100 S7        29.97F
JONESVILLE*    LGT RAIN  45  45 100 CALM      30.01S
ABINGDON*      LGT RAIN  44  43  97 E10       30.01F
BRISTOL        LGT RAIN  44  43  96 E3        30.01F FOG
MORRISTOWN*    CLOUDY    46  45  93 E6        29.96S
SEVIERVILLE*   CLOUDY    43  43 100 W3        29.97S
OAK RIDGE      LGT RAIN  44  42  93 CALM      29.99F
CROSSVILLE     CLOUDY    43  41  93 S8        29.93F
NASHVILLE      DRIZZLE   48  46  93 S6        29.94R FOG
$$

...KEY TO REMARKS...
VSB - VISIBILITY IN MILES
WCI - WIND CHILL INDEX
HX  - HEAT INDEX

$$



USA.gov is the U.S. government's official web portal to all federal, state and local government web resources and services.